Location: Moena
(46.3667°N, 11.6500°E)
Time: 17:00:47
(UTC+00:00)

Cosmos 968 Rocket - Pass Details

Date: 03 March 2021
Orbit: 740 x 771 km, 74.0° (Epoch: 15 April)

Event Time Altitude Azimuth Distance (km) Brightness Sun altitude
Rises 17:48:38 0° 337° (NNW) 3,249 7.1 -8.8°
Reaches altitude 10° 17:51:01 10° 336° (NNW) 2,321 6.3 -9.2°
Maximum altitude 17:56:17 79° 251° (WSW) 790 3.7 -10.1°
Drops below altitude 10° 18:01:32 10° 165° (SSE) 2,308 5.8 -11.0°
Sets 18:03:54 0° 164° (SSE) 3,230 6.5 -11.4°
